COSMOS 2251 DEB, 34572

Orbit data source: Space-Track

COSMOS 2251 DEB, 34572 is space debris in LEO originally from a launch on Wed, 16 Jun 1993 UTC launched from the Plesetsk Missile And Space Complex (PKMTR). The debris from Iridium 33, an American commercial communications satellite, has been tracked extensively since its accidental collision with the defunct Russian satellite Cosmos 2251 in 2009. This event, occurring at high speed in low Earth orbit (LEO), generated thousands of pieces of space debris, significantly increasing the risk of further collisions. The Iridium 33 debris cloud has impacted space traffic management and orbital debris mitigation strategies, making it a subject of ongoing study in space situational awareness.

Loading next visibility...
Identifier
34572, 1993-036VJ
Orbit
LEO
Country
Flag of CISCIS
Related business
Manufacturer
Unknown
Mission
Spacecraft
Bus & Motor
Unknown
Mass
Unknown
Launch date (UTC)
1993-06-16 (32 years ago)
Launch vehicle
Unknown
Launch site
Plesetsk Missile And Space Complex (PKMTR)
Object type
Payload
Rocket body
Debris
Shape & HBR
Unknown shape, 0.1 m
Radar Cross Section
Small (<0.1 m²)

Expand to show TLE details & history
Last TLE update: 10 hours ago

TLE from 10 hours ago
0 COSMOS 2251 DEB
1 34572U 93036VJ  25299.81009762  .00010139  00000-0  26125-2 0  9994
2 34572  74.0105 203.6837 0067730 286.5164 130.5992 14.48782913866987
Epoch: 2025-10-26T19:26Z
TLE epoch observation values (Epoch: 2025-10-26T19:26:32.434Z)
Latitude
54.45699°
Longitude
-99.85976°
Altitude
769.779 km
Speed
7.458 km/s
True Right ascension
15h 08m 47s
True Declination
54° 17' 40"
Sunlit
Object was in daylight at epoch
Visualization orbit readout
Latitude
Unknown
Longitude
Unknown
Altitude
Unknown
Speed
Unknown
Apparent Right ascension
Unknown
Apparent Declination
Unknown
Sunlit
N/A
Visualization observer readout
Local Sidereal Time
00:47:31
Azimuth
Unknown
Elevation
Unknown
Doppler factor
Unknown
Orbital elements
Apogee altitude
775.363 km
Perigee altitude
679.114 km
Semi-major axis
7,105.375 km
Eccentricity
0.00677
Inclination
74.0105°
RAAN
203.6837°
Arg. of periapsis
286.5164°
True anomaly
131.18526°
Mean anomaly
130.5992°
Eccentric anomaly
130.89255°
Mean motion
3.62379 °/min
Orbital period
99.34 mins
BSTAR
0.0026125
Loading maneuver chart data...
Computing Atmospheric mass density...

Documentation

Showing up to 5 results
|